Location: East Grafton
(42.7670°N, 73.4107°W)
Time: 11:51:14
(UTC+00:00)

Daily predictions for brighter satellites

Satellite Brightness Start Highest point End
(mag) Time Altitude Azimuth Time Altitude Azimuth Time Altitude Azimuth
CENTAUR R/B 4.1 21:44:40 10° W 21:49:37 26° NNW 21:55:32 10° NNE
Cosmos 2263 Rocket 3.4 21:45:44 10° N 21:49:54 20° NE 21:54:04 10° E
SL-16 R/B 2.7 21:44:27 10° NNE 21:50:42 87° WNW 21:56:53 10° SSW
NOSS 2-3 (C) 4.3 21:52:07 10° S 21:55:00 23° ESE 21:57:50 10° ENE
EXPRESS MD2 4.3 21:53:37 10° S 21:55:16 16° SE 21:57:17 10° E
Cosmos 2151 3.0 21:52:46 10° N 21:56:52 54° E 22:00:57 10° SSE
SAR-Lupe-4 4.4 21:56:16 10° SE 21:59:23 29° ENE 22:02:30 10° N
IGS 5A 3.3 21:55:27 10° SSE 21:59:23 87° E 22:03:23 10° NNW
IRS-1C 4.4 21:56:42 10° SE 22:01:43 45° ENE 22:06:46 10° N
Cosmos 1486 Rocket 4.4 21:57:14 10° SSW 22:02:24 66° WNW 22:07:38 10° NNE
Cosmos 1782 3.5 22:00:24 10° SSW 22:03:53 50° W 22:07:25 10° N
IRIDIUM 103 4.4 22:00:09 10° N 22:05:20 62° E 22:10:29 10° SSE
Cosmos 773 Rocket 4.4 22:00:24 10° NNW 22:05:36 69° WSW 22:10:48 10° S
Cosmos 2227 Rocket 2.5 22:01:47 10° NNW 22:07:09 43° ENE 22:12:29 10° SE
USA 238 DEB 4.0 22:04:53 10° S 22:10:22 38° ESE 22:16:08 11° NE
USA 238 4.1 22:05:01 10° S 22:10:29 38° ESE 22:16:14 11° NE
Cosmos 990 Rocket 4.0 22:07:49 10° S 22:12:50 59° ESE 22:17:54 10° NNE
MOS 1 Rocket 3.8 22:08:21 10° SE 22:12:55 42° ENE 22:17:46 10° N
Cosmos 2084 Rocket 3.3 22:09:40 10° NNW 22:13:53 70° NE 22:18:04 10° SE
Aureole 1 Rocket 4.2 22:13:03 10° SSE 22:16:41 27° E 22:20:54 11° NE
Cosmos 1697 Rocket 2.7 22:12:13 10° SSW 22:17:48 79° ESE 22:23:25 10° NNE
Cosmos 1867 3.6 22:12:54 10° NNW 22:18:20 65° NE 22:23:43 10° SE
Cosmos 1825 Rocket 3.7 22:14:24 10° N 22:18:36 47° ENE 22:22:45 10° SSE
Cosmos 2098 Rocket 4.1 22:16:44 10° SSW 22:20:43 49° WNW 22:25:25 10° N
NOSS 2-3 (E) 3.1 22:17:25 10° SSW 22:21:05 65° ESE 22:24:06 15° NE
Cosmos 1900 4.3 22:16:19 10° NNW 22:21:22 73° ENE 22:26:17 10° SE
NOSS 2-3 (D) 3.2 22:17:55 10° SSW 22:21:37 60° ESE 22:24:33 15° NE
IRIDIUM 106 4.3 22:18:26 10° N 22:23:41 89° E 22:28:54 10° S
ARIANE 5 R/B 2.4 22:18:49 10° SSE 22:23:50 71° ENE 22:28:57 10° N
Cosmos 1655 Rocket 4.1 22:23:33 10° N 22:29:37 50° ENE 22:35:37 10° SSE
UNK 4.1 22:26:05 10° N 22:30:39 66° WNW 22:35:08 10° SSW
SJ-6F 4.3 22:31:36 10° SSE 22:35:29 57° ENE 22:39:26 10° N
Cosmos 1076 Rocket 3.7 22:31:23 10° N 22:35:33 46° ENE 22:39:42 10° SSE
ATLAS CENTAUR R/B 4.0 22:34:40 10° WNW 22:36:48 17° WSW 22:38:52 10° SSW
SAR-Lupe-3 3.8 22:36:47 34° NE 22:37:29 46° E 22:39:53 10° S
SMAP 3.6 22:32:55 10° S 22:37:31 64° W 22:42:09 10° NNW
COSMOS 2455 4.2 22:34:41 10° SE 22:38:26 17° ESE 22:39:11 17° E
Cosmos 2058 Rocket 3.7 22:35:20 10° SSE 22:39:23 35° E 22:42:19 17° NNE
COSMO-SKYMED 1 3.4 22:38:13 22° ENE 22:39:37 27° E 22:43:08 10° SSE
SPOT 1/Viking Rocket 3.7 22:36:37 10° SE 22:41:36 49° ENE 22:46:37 10° N
Landsat 7 4.0 22:37:36 10° S 22:42:14 74° WSW 22:46:54 10° NNW
Gbstr 26 Del rocket 3.3 22:39:42 10° WSW 22:43:42 49° NNW 22:45:42 24° NE
Cosmos 1606 Rocket 4.1 22:45:38 10° SSW 22:49:58 60° W 22:54:22 10° N
IRS-P3 4.0 22:45:47 10° SSE 22:51:06 86° ENE 22:56:27 10° NNW
Cosmos 2082 4.3 22:49:21 10° N 22:54:30 33° NE 22:56:34 26° E
CZ-2D R/B 4.1 22:54:13 10° S 22:57:11 41° W 23:00:12 10° NNW
Cosmos 2297 Rocket 4.1 22:54:34 10° NW 22:59:33 32° WSW 23:04:30 10° SSW
NOSS 3-2 (C) 4.5 22:56:01 10° WSW 23:00:39 33° NW 23:05:30 12° NNE
Resurs 1-3 3.7 22:58:01 10° SE 23:02:08 47° ENE 23:06:16 10° N
Cosmos 1538 Rocket 3.9 22:56:59 10° NNW 23:02:16 65° ENE 23:07:33 10° SSE
SL-16 R/B 4.0 23:00:27 10° SE 23:01:52 14° SE 23:01:52 14° SE
CZ-4C R/B 3.6 22:57:09 10° NW 23:04:25 63° WSW 23:13:10 10° SSE
Meteor 1-26 Rocket 4.0 23:03:31 10° S 23:08:51 62° E 23:12:48 18° NNE
Okean 1 3.2 23:10:09 10° S 23:13:11 53° SE 23:13:11 53° SE
Nadezhda 2 Rocket 4.4 23:12:02 10° N 23:18:04 59° E 23:24:04 10° SSE
Cosmos 2219 3.2 23:14:42 10° NNW 23:20:25 62° ENE 23:24:18 21° SE
Cosmos 1980 Rocket 2.4 23:15:43 10° SSW 23:21:22 72° WNW 23:25:04 22° NNE
Cosmos 1553 Rocket 3.9 23:16:58 10° S 23:23:02 67° E 23:29:05 11° NNE
Spot 4 Rocket 3.9 23:18:28 10° SSE 23:23:34 85° ENE 23:28:42 10° NNW
Cosmos-2242 2.9 23:19:42 10° S 23:23:56 82° W 23:25:43 34° N
YAOGAN 1 2.4 23:20:57 10° SSE 23:25:12 89° ENE 23:29:30 10° NNW
Cosmos 1844 Rocket 4.4 23:22:07 10° N 23:23:59 17° NNE 23:23:59 17° NNE
Cosmos 1898 Rocket 3.4 23:23:34 10° SSW 23:28:42 85° WNW 23:30:53 36° NNE
SKYMED 2 4.3 23:27:41 16° N 23:30:57 51° WNW 23:35:10 10° SSW
OceanSat 1 rocket 4.4 23:26:20 10° SSE 23:31:04 75° ENE 23:35:47 10° N
Cosmos 2263 Rocket 2.4 23:28:43 10° NNW 23:34:22 71° WSW 23:40:01 10° SSE
SL-24 R/B - RUBIN 2 4.1 23:29:19 10° SSW 23:34:30 54° SE 23:34:30 54° SE
Cosmos 2369 3.6 23:29:05 10° SSW 23:34:48 84° ESE 23:36:34 47° NNE
Helios 1A Rocket 4.5 23:46:13 23° SSW 23:46:13 23° SSW 23:47:37 10° SSW
Cosmos 1937 Rocket 3.4 23:41:57 10° SSW 23:47:09 80° WNW 23:47:52 65° N
Meteor 1-17 Rocket 4.5 23:41:54 10° N 23:47:29 80° E 23:52:59 10° SSE
Cosmos 2227 Rocket 4.1 23:46:11 10° NW 23:50:57 29° WSW 23:55:42 10° SSW
